Starlink 33679

operational
NORAD ID: 63460 Int'l Des: 2025-070 Owner: SPXS Country: US Constellation: starlink
LEOCIRCULAR

Starlink 33679について

説明を読み込み中...

リアルタイム位置

3D地球を読み込み中...

次回通過

高度履歴

Altitude vs Time

uPlot chart will show altitude changes over time

軌道要素

1 63460U 25070A 25307.56219957 .00034518 00000-0 12566-2 0 9997
2 63460 43.0040 252.4176 0001134 287.4481 72.6247 15.27618704 33681
Epoch: Nov 3, 2025 • Age: 16 hours

現在のステータス

高度 484.6 km
速度 7.63 km/s
衛星直下点 33.09°N, 105.24°W
打ち上げ日 Apr 6, 2025
運用期間 0.5 years
タイプ internet

技術仕様

分類 Payload
質量 575.00 kg
乾燥質量 530.00 kg
総質量 575.00 kg
長さ 0.30 m
直径 4.10 m
スパン 29.00 m
形状 Box + pan
製造者 SPXS
バスタイプ Starlink V2MO
フェーズステータス In Orbit
所有者/国 SPXS/US

大規模コンステレーション

Loading constellations...